﻿_id,UTC_DateTime,UTC_Time,PG,PG_mean,unit,site,lat,lon,alt
1,2012-07-10T00:00:00,00:00:00,76,70,V/m,CAS,-31.798,290.705,2550
2,2012-07-10T01:00:00,01:00:00,72,63,V/m,CAS,-31.798,290.705,2550
3,2012-07-10T02:00:00,02:00:00,70,65,V/m,CAS,-31.798,290.705,2550
4,2012-07-10T03:00:00,03:00:00,68,64,V/m,CAS,-31.798,290.705,2550
5,2012-07-10T04:00:00,04:00:00,59,62,V/m,CAS,-31.798,290.705,2550
6,2012-07-10T05:00:00,05:00:00,56,59,V/m,CAS,-31.798,290.705,2550
7,2012-07-10T06:00:00,06:00:00,60,61,V/m,CAS,-31.798,290.705,2550
8,2012-07-10T07:00:00,07:00:00,64,64,V/m,CAS,-31.798,290.705,2550
9,2012-07-10T08:00:00,08:00:00,69,66,V/m,CAS,-31.798,290.705,2550
10,2012-07-10T09:00:00,09:00:00,69,68,V/m,CAS,-31.798,290.705,2550
11,2012-07-10T10:00:00,10:00:00,84,68,V/m,CAS,-31.798,290.705,2550
12,2012-07-10T11:00:00,11:00:00,81,63,V/m,CAS,-31.798,290.705,2550
13,2012-07-10T12:00:00,12:00:00,73,70,V/m,CAS,-31.798,290.705,2550
14,2012-07-10T13:00:00,13:00:00,93,78,V/m,CAS,-31.798,290.705,2550
15,2012-07-10T14:00:00,14:00:00,100,87,V/m,CAS,-31.798,290.705,2550
16,2012-07-10T15:00:00,15:00:00,104,93,V/m,CAS,-31.798,290.705,2550
17,2012-07-10T16:00:00,16:00:00,107,97,V/m,CAS,-31.798,290.705,2550
18,2012-07-10T17:00:00,17:00:00,117,101,V/m,CAS,-31.798,290.705,2550
19,2012-07-10T18:00:00,18:00:00,120,108,V/m,CAS,-31.798,290.705,2550
20,2012-07-10T19:00:00,19:00:00,135,111,V/m,CAS,-31.798,290.705,2550
21,2012-07-10T20:00:00,20:00:00,124,111,V/m,CAS,-31.798,290.705,2550
22,2012-07-10T21:00:00,21:00:00,109,99,V/m,CAS,-31.798,290.705,2550
23,2012-07-10T22:00:00,22:00:00,90,84,V/m,CAS,-31.798,290.705,2550
24,2012-07-10T23:00:00,23:00:00,79,78,V/m,CAS,-31.798,290.705,2550
25,2012-07-11T00:00:00,00:00:00,71,70,V/m,CAS,-31.798,290.705,2550
26,2012-07-11T01:00:00,01:00:00,66,63,V/m,CAS,-31.798,290.705,2550
27,2012-07-11T02:00:00,02:00:00,61,65,V/m,CAS,-31.798,290.705,2550
28,2012-07-11T03:00:00,03:00:00,59,64,V/m,CAS,-31.798,290.705,2550
29,2012-07-11T04:00:00,04:00:00,60,62,V/m,CAS,-31.798,290.705,2550
30,2012-07-11T05:00:00,05:00:00,66,59,V/m,CAS,-31.798,290.705,2550
31,2012-07-11T06:00:00,06:00:00,70,61,V/m,CAS,-31.798,290.705,2550
32,2012-07-11T07:00:00,07:00:00,68,64,V/m,CAS,-31.798,290.705,2550
33,2012-07-11T08:00:00,08:00:00,73,66,V/m,CAS,-31.798,290.705,2550
34,2012-07-11T09:00:00,09:00:00,74,68,V/m,CAS,-31.798,290.705,2550
35,2012-07-11T10:00:00,10:00:00,71,68,V/m,CAS,-31.798,290.705,2550
36,2012-07-11T11:00:00,11:00:00,74,63,V/m,CAS,-31.798,290.705,2550
37,2012-07-11T12:00:00,12:00:00,112,70,V/m,CAS,-31.798,290.705,2550
38,2012-07-11T13:00:00,13:00:00,94,78,V/m,CAS,-31.798,290.705,2550
39,2012-07-11T14:00:00,14:00:00,102,87,V/m,CAS,-31.798,290.705,2550
40,2012-07-11T15:00:00,15:00:00,106,93,V/m,CAS,-31.798,290.705,2550
41,2012-07-11T16:00:00,16:00:00,105,97,V/m,CAS,-31.798,290.705,2550
42,2012-07-11T17:00:00,17:00:00,88,101,V/m,CAS,-31.798,290.705,2550
43,2012-07-11T18:00:00,18:00:00,77,108,V/m,CAS,-31.798,290.705,2550
44,2012-07-11T19:00:00,19:00:00,116,111,V/m,CAS,-31.798,290.705,2550
45,2012-07-11T20:00:00,20:00:00,139,111,V/m,CAS,-31.798,290.705,2550
46,2012-07-11T21:00:00,21:00:00,139,99,V/m,CAS,-31.798,290.705,2550
47,2012-07-11T22:00:00,22:00:00,146,84,V/m,CAS,-31.798,290.705,2550
48,2012-07-11T23:00:00,23:00:00,104,78,V/m,CAS,-31.798,290.705,2550
49,2012-07-12T00:00:00,00:00:00,88,70,V/m,CAS,-31.798,290.705,2550
50,2012-07-12T01:00:00,01:00:00,75,63,V/m,CAS,-31.798,290.705,2550
51,2012-07-12T02:00:00,02:00:00,76,65,V/m,CAS,-31.798,290.705,2550
52,2012-07-12T03:00:00,03:00:00,64,64,V/m,CAS,-31.798,290.705,2550
53,2012-07-12T04:00:00,04:00:00,64,62,V/m,CAS,-31.798,290.705,2550
54,2012-07-12T05:00:00,05:00:00,65,59,V/m,CAS,-31.798,290.705,2550
55,2012-07-12T06:00:00,06:00:00,74,61,V/m,CAS,-31.798,290.705,2550
56,2012-07-12T07:00:00,07:00:00,93,64,V/m,CAS,-31.798,290.705,2550
57,2012-07-12T08:00:00,08:00:00,86,66,V/m,CAS,-31.798,290.705,2550
58,2012-07-12T09:00:00,09:00:00,80,68,V/m,CAS,-31.798,290.705,2550
59,2012-07-12T10:00:00,10:00:00,72,68,V/m,CAS,-31.798,290.705,2550
60,2012-07-12T11:00:00,11:00:00,67,63,V/m,CAS,-31.798,290.705,2550
61,2012-07-12T12:00:00,12:00:00,78,70,V/m,CAS,-31.798,290.705,2550
62,2012-07-12T13:00:00,13:00:00,87,78,V/m,CAS,-31.798,290.705,2550
63,2012-07-12T14:00:00,14:00:00,85,87,V/m,CAS,-31.798,290.705,2550
64,2012-07-12T15:00:00,15:00:00,87,93,V/m,CAS,-31.798,290.705,2550
65,2012-07-12T16:00:00,16:00:00,98,97,V/m,CAS,-31.798,290.705,2550
66,2012-07-12T17:00:00,17:00:00,85,101,V/m,CAS,-31.798,290.705,2550
67,2012-07-12T18:00:00,18:00:00,92,108,V/m,CAS,-31.798,290.705,2550
68,2012-07-12T19:00:00,19:00:00,98,111,V/m,CAS,-31.798,290.705,2550
69,2012-07-12T20:00:00,20:00:00,99,111,V/m,CAS,-31.798,290.705,2550
70,2012-07-12T21:00:00,21:00:00,101,99,V/m,CAS,-31.798,290.705,2550
71,2012-07-12T22:00:00,22:00:00,78,84,V/m,CAS,-31.798,290.705,2550
72,2012-07-12T23:00:00,23:00:00,66,78,V/m,CAS,-31.798,290.705,2550
73,2012-07-13T00:00:00,00:00:00,57,70,V/m,CAS,-31.798,290.705,2550
74,2012-07-13T01:00:00,01:00:00,52,63,V/m,CAS,-31.798,290.705,2550
75,2012-07-13T02:00:00,02:00:00,50,65,V/m,CAS,-31.798,290.705,2550
76,2012-07-13T03:00:00,03:00:00,49,64,V/m,CAS,-31.798,290.705,2550
77,2012-07-13T04:00:00,04:00:00,53,62,V/m,CAS,-31.798,290.705,2550
78,2012-07-13T05:00:00,05:00:00,54,59,V/m,CAS,-31.798,290.705,2550
79,2012-07-13T06:00:00,06:00:00,60,61,V/m,CAS,-31.798,290.705,2550
80,2012-07-13T07:00:00,07:00:00,65,64,V/m,CAS,-31.798,290.705,2550
81,2012-07-13T08:00:00,08:00:00,63,66,V/m,CAS,-31.798,290.705,2550
82,2012-07-13T09:00:00,09:00:00,66,68,V/m,CAS,-31.798,290.705,2550
83,2012-07-13T10:00:00,10:00:00,63,68,V/m,CAS,-31.798,290.705,2550
84,2012-07-13T11:00:00,11:00:00,65,63,V/m,CAS,-31.798,290.705,2550
85,2012-07-13T12:00:00,12:00:00,70,70,V/m,CAS,-31.798,290.705,2550
86,2012-07-13T13:00:00,13:00:00,75,78,V/m,CAS,-31.798,290.705,2550
87,2012-07-13T14:00:00,14:00:00,82,87,V/m,CAS,-31.798,290.705,2550
88,2012-07-13T15:00:00,15:00:00,85,93,V/m,CAS,-31.798,290.705,2550
89,2012-07-13T16:00:00,16:00:00,91,97,V/m,CAS,-31.798,290.705,2550
90,2012-07-13T17:00:00,17:00:00,91,101,V/m,CAS,-31.798,290.705,2550
91,2012-07-13T18:00:00,18:00:00,104,108,V/m,CAS,-31.798,290.705,2550
92,2012-07-13T19:00:00,19:00:00,95,111,V/m,CAS,-31.798,290.705,2550
93,2012-07-13T20:00:00,20:00:00,101,111,V/m,CAS,-31.798,290.705,2550
94,2012-07-13T21:00:00,21:00:00,82,99,V/m,CAS,-31.798,290.705,2550
95,2012-07-13T22:00:00,22:00:00,70,84,V/m,CAS,-31.798,290.705,2550
96,2012-07-13T23:00:00,23:00:00,78,78,V/m,CAS,-31.798,290.705,2550
97,2012-07-14T00:00:00,00:00:00,57,70,V/m,CAS,-31.798,290.705,2550
98,2012-07-14T01:00:00,01:00:00,53,63,V/m,CAS,-31.798,290.705,2550
99,2012-07-14T02:00:00,02:00:00,55,65,V/m,CAS,-31.798,290.705,2550
100,2012-07-14T03:00:00,03:00:00,59,64,V/m,CAS,-31.798,290.705,2550
101,2012-07-14T04:00:00,04:00:00,63,62,V/m,CAS,-31.798,290.705,2550
102,2012-07-14T05:00:00,05:00:00,57,59,V/m,CAS,-31.798,290.705,2550
103,2012-07-14T06:00:00,06:00:00,78,61,V/m,CAS,-31.798,290.705,2550
104,2012-07-14T07:00:00,07:00:00,83,64,V/m,CAS,-31.798,290.705,2550
105,2012-07-14T08:00:00,08:00:00,57,66,V/m,CAS,-31.798,290.705,2550
106,2012-07-14T09:00:00,09:00:00,56,68,V/m,CAS,-31.798,290.705,2550
107,2012-07-14T10:00:00,10:00:00,60,68,V/m,CAS,-31.798,290.705,2550
108,2012-07-14T11:00:00,11:00:00,61,63,V/m,CAS,-31.798,290.705,2550
109,2012-07-14T12:00:00,12:00:00,72,70,V/m,CAS,-31.798,290.705,2550
110,2012-07-14T13:00:00,13:00:00,95,78,V/m,CAS,-31.798,290.705,2550
111,2012-07-14T14:00:00,14:00:00,111,87,V/m,CAS,-31.798,290.705,2550
112,2012-07-14T15:00:00,15:00:00,116,93,V/m,CAS,-31.798,290.705,2550
113,2012-07-14T16:00:00,16:00:00,127,97,V/m,CAS,-31.798,290.705,2550
114,2012-07-14T17:00:00,17:00:00,123,101,V/m,CAS,-31.798,290.705,2550
115,2012-07-14T18:00:00,18:00:00,130,108,V/m,CAS,-31.798,290.705,2550
116,2012-07-14T19:00:00,19:00:00,146,111,V/m,CAS,-31.798,290.705,2550
117,2012-07-14T20:00:00,20:00:00,133,111,V/m,CAS,-31.798,290.705,2550
118,2012-07-14T21:00:00,21:00:00,128,99,V/m,CAS,-31.798,290.705,2550
119,2012-07-14T22:00:00,22:00:00,121,84,V/m,CAS,-31.798,290.705,2550
120,2012-07-14T23:00:00,23:00:00,93,78,V/m,CAS,-31.798,290.705,2550
